sat.trackr.live / text

‹ back to catalog

STARLINK-37053

NORAD 68159 · 2026-049T

PAYLOAD ACTIVE UNKNOWN

§ Identity

Operator
Country
US
Launch date
2026-03-13
Launch site
AFWTR
Launch vehicle
Mass (kg)
RCS (m²)

Purposes: comms

External: N2YO · Heavens-Above · Gunter

§ Orbital elements

Epoch: 2026-09-19T00:23:26.261952Z

Period
93.91 min
Inclination
97.2846°
Eccentricity
0.0001026
Mean motion
15.33446031 rev/d
Perigee alt
464.8 km
Apogee alt
466.2 km
Semi-major
6,843.7 km
B*
4.4244e-4
RAAN
281.9949°
Arg perigee
94.2312°
Mean anomaly
265.9048°
Rev number
2,927

§ Raw data

STARLINK-370531 68159U 26049T   26262.01627618  .00014236  00000+0  44244-3 0  99952 68159  97.2846 281.9949 0001026  94.2312 265.9048 15.33446031 29273

JSON: /api/v1/satellites/68159 · /tle

For live sub-satellite position, see the globe view (requires WebGL).

§ Visibility from observer

Set your observer location to see the next 7 days of passes ≥ 10°. The values pass through the URL so the page stays shareable.

No JS? Fill the form by hand. The geolocation button needs JavaScript.